Overview Statistics Trail Chart Weather Telemetry Raw packets
 

This is the latest recevied weather packets stored in our database for station/object VE8SKI. If no packets are shown the sender has not sent any weather packets the latest 10 day(s).

<< 108 109 110 111 112 113 >>
Time Temp. Humidity Pressure Rain* Wind** Luminosity Snow
1777267714 -6.11° C 80% 1027.1 hPa 0 mm 0.45 m/s, 77° - -
1777267414 -6.11° C 79% 1027 hPa 0 mm 1.34 m/s, 75° - -
1777267111 -6.11° C 79% 1026.9 hPa 0 mm 1.34 m/s, 79° - -
1777266811 -5.56° C 79% 1026.9 hPa 0 mm 1.34 m/s, 97° - -
1777266511 -5.56° C 78% 1026.8 hPa 0 mm 1.79 m/s, 82° - -
1777266212 -5.56° C 78% 1026.8 hPa 0 mm 1.79 m/s, 96° - -
1777265912 -5.56° C 78% 1026.7 hPa 0 mm 0.45 m/s, 142° - -
1777265612 -5.56° C 77% 1026.7 hPa 0 mm 0.89 m/s, 121° - -
1777265309 -5.56° C 77% 1026.6 hPa 0 mm 1.34 m/s, 120° - -
1777265009 -5.56° C 76% 1026.6 hPa 0 mm 0.45 m/s, 82° - -
1777264710 -5° C 76% 1026.6 hPa 0 mm 0.45 m/s, 98° - -
1777264410 -5° C 76% 1026.4 hPa 0 mm 1.34 m/s, 59° - -
1777264110 -5° C 75% 1026.3 hPa 0 mm 1.34 m/s, 104° - -
1777263810 -5° C 75% 1026.3 hPa 0 mm 0.89 m/s, 114° - -
1777263508 -5° C 74% 1026.1 hPa 0 mm 1.79 m/s, 89° - -
1777263208 -4.44° C 74% 1026 hPa 0 mm 1.34 m/s, 86° - -
1777262908 -4.44° C 73% 1025.9 hPa 0 mm 0.89 m/s, 121° - -
1777262609 -4.44° C 73% 1025.8 hPa 0 mm 1.34 m/s, 111° - -
1777262309 -3.89° C 73% 1025.6 hPa 0 mm 1.79 m/s, 70° - -
1777262009 -3.89° C 72% 1025.5 hPa 0 mm 1.79 m/s, 103° - -
1777261707 -3.89° C 72% 1025.4 hPa 0 mm 1.79 m/s, 96° - -
1777261407 -3.89° C 71% 1025.3 hPa 0 mm 1.79 m/s, 97° - -
1777261107 -3.89° C 71% 1025.1 hPa 0 mm 1.79 m/s, 122° - -
1777260808 -3.33° C 70% 1024.9 hPa 0 mm 1.34 m/s, 82° - -
1777260508 -3.33° C 70% 1024.7 hPa 0 mm 1.79 m/s, 124° - -

* Rain latest hour (hover to see other rain measurements)
** Current wind speed in m/s (hover to see current wind gust speed)